Regional Weather Roundup
Issued by NWS

Home | Current Version | Previous Version | Graphics & Text | Print | Product List | Glossary On
Versions: 1 2 3 4 5 6 7 8 9 10 11 12 13 14 15 16 17 18 19 20 21 22 23 24 25 26 27 28 29 30 31 32 33 34 35 36 37 38 39 40 41 42 43 44 45 46 47 48 49 50
000
ASUS43 KOAX 290310
RWRNE

WEATHER ROUNDUP FOR NEBRASKA
NATIONAL WEATHER SERVICE OMAHA NE
1000 PM CDT THU APR 28 2016

NOTES: SATELLITE DATA IS BEING USED TO AUGMENT CLOUD COVER ABOVE
       12000 FEET.
       "FAIR" INDICATES FEW OR NO CLOUDS BELOW 12,000 FEET WITH NO
       SIGNIFICANT WEATHER AND/OR OBSTRUCTIONS TO VISIBILITY.

  * THESE STATIONS DO NOT REPORT WEATHER SUCH AS RAIN...SNOW OR FOG.

NEZ001>004-019>022-054>056-290400-
NEBRASKA PANHANDLE

CITY           SKY/WX    TMP DP  RH WIND       PRES   REMARKS
SCOTTSBLUFF    CLOUDY    38  35  89 CALM      30.11R
ALLIANCE       CLOUDY    33  32  96 W6        30.10R WCI  28
CHADRON        CLOUDY    40  36  86 NE3       30.12R
KIMBALL        CLOUDY    36  33  92 NE5       30.08R WCI  32
SIDNEY         CLOUDY    37  33  85 N8        30.09R WCI  31
$$

NEZ057>060-069>072-079>082-290400-
SOUTHWEST NEBRASKA

CITY           SKY/WX    TMP DP  RH WIND       PRES   REMARKS
NORTH PLATTE   CLOUDY    42  39  89 CALM      30.08R
IMPERIAL       CLOUDY    44  39  82 N3        30.08R
LEXINGTON      CLOUDY    45  41  87 CALM      30.10R
MCCOOK         CLOUDY    45  39  79 NE6       30.09R
OGALLALA       CLOUDY    42  37  80 CALM      30.10R
$$

NEZ005>010-023>029-035>040-094-290400-
NORTH CENTRAL NEBRASKA

CITY           SKY/WX    TMP DP  RH WIND       PRES   REMARKS
VALENTINE      CLOUDY    39  37  92 NW7       30.11R WCI  34
AINSWORTH      CLOUDY    39  38  97 NW7       30.10R WCI  34
BROKEN BOW     CLOUDY    43  39  86 N10       30.08R
O`NEILL        CLOUDY    40  39  95 N7        30.10R
ORD            CLOUDY    42  39  89 N7        30.09R
THEDFORD       CLOUDY    41  38  91 N9        30.10R
$$

NEZ041-046>049-061>064-073>077-083>087-290400-
SOUTH CENTRAL NEBRASKA

CITY           SKY/WX    TMP DP  RH WIND       PRES   REMARKS
GRAND ISLAND   CLOUDY    44  40  85 NE8       30.11R
AURORA         CLOUDY    45  41  86 NE7       30.10R
HASTINGS       CLOUDY    46  40  79 N6        30.10R
HEBRON         CLOUDY    49  43  78 NE6       30.10R
HOLDREGE       CLOUDY    45  42  89 CALM      30.10R
KEARNEY *      CLOUDY    45  39  81 NE3       30.11R
YORK           CLOUDY    45  41  87 N7        30.10R
$$

NEZ011>018-030>034-042>045-290400-
NORTHEAST NEBRASKA

CITY           SKY/WX    TMP DP  RH WIND       PRES   REMARKS
NORFOLK        CLOUDY    43  38  82 N8        30.07S
ALBION         CLOUDY    43  38  84 N7        30.08R
BLAIR          CLOUDY    45  40  83 N7        30.08R
COLUMBUS *     CLOUDY    45  34  65 N6        30.10R
FREMONT        CLOUDY    45  40  83 CALM      30.09R
TEKAMAH        CLOUDY    45  41  86 N10       30.08R
WAYNE          CLOUDY    43  40  91 N8        30.09S
$$

NEZ050>053-065>068-078-088>093-290400-
SOUTHEAST NEBRASKA

CITY           SKY/WX    TMP DP  RH WIND       PRES   REMARKS
LINCOLN        CLOUDY    48  41  76 NE6       30.11R
OMAHA EPPLEY   CLOUDY    46  41  82 N8        30.09R
BEATRICE       CLOUDY    49  43  81 N7        30.10R
FALLS CITY     CLOUDY    51  44  77 N6        30.07R
NEBRASKA CITY  CLOUDY    48  41  77 N6        30.09R
PLATTSMOUTH    CLOUDY    46  42  84 N5        30.09R
$$

NEZ044-045-051>053-067-290400-
OMAHA AREA

CITY           SKY/WX    TMP DP  RH WIND       PRES   REMARKS
OMAHA EPPLEY   CLOUDY    46  41  82 N8        30.09R
BLAIR          CLOUDY    45  40  83 N7        30.08R
FREMONT        CLOUDY    45  40  83 CALM      30.09R
MILLARD        CLOUDY    47  40  76 CALM      30.09R
PLATTSMOUTH    CLOUDY    46  42  84 N5        30.09R
WAHOO          CLOUDY    46  42  84 N8        30.09R
$$




USA.gov is the U.S. government's official web portal to all federal, state and local government web resources and services.